Regional Weather Roundup
Issued by NWS

Home | Current Version | Previous Version | Graphics & Text | Print | Product List | Glossary On
Versions: 1 2 3 4 5 6 7 8 9 10 11 12 13 14 15 16 17 18 19 20 21 22 23 24 25 26 27 28 29 30 31 32 33 34 35 36 37 38 39 40 41 42 43 44 45 46 47 48 49 50
000
ASUS45 KABQ 260210
RWRNM
NEW MEXICO REGIONAL WEATHER ROUNDUP
NATIONAL WEATHER SERVICE ALBUQUERQUE NM
700 PM MST SAT FEB 25 2017

NOTE: "FAIR" MEANS FEW OR NO CLOUDS BELOW 12,000 FEET AGL WITH NO
       SIGNIFICANT WEATHER OR OBSTRUCTIONS TO VISION.

      THIS PRODUCT IS RELEASED AS TWO VERSIONS.  ONE VERSION NEAR
      THE TOP OF THE HOUR CONTAINING PRELIMINARY DATA FROM ALBUQUERQUE
      AND OTHER STATIONS.  A FINAL VERSION WITH ADDITIONAL DATA IS
      ISSUED ABOUT 10 MINUTES AFTER THE HOUR.

NMZ501-503-504-510>518-260300-
NORTHWEST PLATEAU/NORTHCENTRAL MOUNTAINS

CITY           SKY/WX    TMP DP  RH WIND       PRES   REMARKS
FARMINGTON     FAIR      36   4  26 CALM      29.89S
LOS ALAMOS     MOCLDY    37   4  25 SW8       29.88R WCI  30
SANTA FE       FAIR      38   4  24 W5        29.85R WCI  34
TAOS           FAIR      27   0  31 NW8       29.86S WCI  18
ANGEL FIRE     MOCLDY    27   2  33 SW16G23   29.84S WCI  15

$$
NMZ402-403-502-505>509-260300-
WESTCENTRAL MOUNTAINS/SOUTHWEST MOUNTAINS

CITY           SKY/WX    TMP DP  RH WIND       PRES   REMARKS
GALLUP         MOCLDY    37   6  27 W6        29.89F WCI  32
GRANTS         MOCLDY    34   1  24 W3        29.91S
SILVER CITY    FAIR      45   8  21 W10       29.98R

$$
NMZ407-409-411-412-260300-
SOUTHERN DESERTS

CITY           SKY/WX    TMP DP  RH WIND       PRES   REMARKS
DEMING         FAIR      54   5  14 W14       29.93S
LAS CRUCES     FAIR      53   1  12 SW3       29.95R
HOLLOMAN AFB   FAIR      54  -5   8 SW10G20   29.93R
ALAMOGORDO     FAIR      46  10  23 SE10      29.92R
T OR C         FAIR      53  -1  11 SW14      29.90R

$$
NMZ519>523-260300-
CENTRAL VALLEYS/CENTRAL HIGHLANDS

CITY           SKY/WX    TMP DP  RH WIND       PRES   REMARKS
ALBUQUERQUE    FAIR      48  -6  10 W14       29.87R
DOUBLE EAGLE   PTCLDY    43  -2  15 W13       29.88R
MORIARTY ARPT  FAIR      46  -3  12 W12       29.87R
CLINES CORNERS MOCLDY    39  -4  16 W21       29.87R WCI  29
BELEN          FAIR      44  -5  13 S3        29.87R
SOCORRO        FAIR      49   6  18 NW7       29.85R

$$
NMZ524>526-539-540-260300-
SOUTHCENTRAL MOUNTAINS

CITY           SKY/WX    TMP DP  RH WIND       PRES   REMARKS
RUIDOSO        FAIR      41  -2  16 SW10G16   29.93R

$$
NMZ527>531-260300-
NORTHEAST HIGHLANDS/NORTHEAST PLAINS

CITY           SKY/WX    TMP DP  RH WIND       PRES   REMARKS
LAS VEGAS      FAIR      36   4  26 SW14      29.84R WCI  27
RATON          FAIR      38   1  21 W20G33    29.80R WCI  28
CLAYTON        FAIR      45   4  18 W18       29.78S

$$
NMZ532>537-260300-
EASTCENTRAL PLAINS

CITY           SKY/WX    TMP DP  RH WIND       PRES   REMARKS
TUCUMCARI      FAIR      48  13  24 SW12      29.82R
CANNON AFB     FAIR      39  17  40 S7        29.86S WCI  34
CLOVIS AIRPORT FAIR      41  18  38 S10       29.86S

$$
NMZ028-029-538-260300-
SOUTHEAST PLAINS

CITY           SKY/WX    TMP DP  RH WIND       PRES   REMARKS
ROSWELL        FAIR      49  17  28 SE7         N/A
ARTESIA        FAIR      55   5  13 SW15      29.85S
CARLSBAD       FAIR      53  17  24 CALM      29.86S
HOBBS          FAIR      46  16  29 SE6       29.91S


$$



USA.gov is the U.S. government's official web portal to all federal, state and local government web resources and services.